Tracking 35035 objects as of 16-Aug-2026
HD Live streaming from Space Station
objects crossing your sky now

STARLINK-33542


STARLINK-33542 is no longer on orbit
STARLINK-33542 is classified as:


NORAD ID: 62105
Int'l Code: 2024-220T
Launch date: November 25, 2024
Source: United States (US)
Launch site: AIR FORCE EASTERN TEST RANGE (AFETR)
Decay date: 2025-08-16
Your satellite tracking list
Your tracking list is empty




NASA's NSSDC Master Catalog

Two Line Element Set (TLE):
1 62105U 24220T   25227.55376212  .01880513  37636-2  10928-2 0  9998
2 62105  42.9060 157.2174 0004173 230.1523 298.6811 16.18820999 43156
Source of the keplerian elements: AFSPC